Radiation Dose at Monitoring Post of Fukushima Daini Nuclear Power Station
Date,Time,MP-1(microSv/h),MP-2(microSv/h),MP-3(microSv/h),MP-4(microSv/h),MP-5(microSv/h),MP-6(microSv/h),MP-7(microSv/h),Wind Direction,Wind Velocity(m/s),Rain
2017/09/08,00:00,0.356,0.223,0.352,0.334,0.324,0.184,0.117,east,1.4,Yes
2017/09/08,00:10,0.352,0.223,0.356,0.332,0.320,0.183,0.116,east-northeast,2.0,Yes
2017/09/08,00:20,0.355,0.220,0.351,0.328,0.322,0.183,0.115,east-northeast,3.3,Yes
2017/09/08,00:30,0.350,0.222,0.352,0.331,0.320,0.179,0.113,east-northeast,2.8,Yes
2017/09/08,00:40,0.352,0.220,0.353,0.329,0.321,0.183,0.115,north-northeast,2.5,Yes
2017/09/08,00:50,0.355,0.223,0.352,0.330,0.325,0.184,0.116,northeast,2.8,Yes
2017/09/08,01:00,0.352,0.225,0.355,0.332,0.323,0.185,0.117,east-northeast,1.6,Yes
2017/09/08,01:10,0.355,0.226,0.353,0.329,0.326,0.186,0.118,northeast,1.9,Yes
2017/09/08,01:20,0.352,0.225,0.353,0.332,0.324,0.185,0.117,east-northeast,1.0,Yes
2017/09/08,01:30,0.354,0.224,0.353,0.329,0.323,0.186,0.119,north-northeast,2.3,Yes
2017/09/08,01:40,0.354,0.225,0.350,0.330,0.323,0.186,0.118,north-northeast,3.1,Yes
2017/09/08,01:50,0.351,0.225,0.351,0.330,0.322,0.184,0.118,north-northeast,3.8,Yes
2017/09/08,02:00,0.355,0.226,0.349,0.329,0.327,0.185,0.118,north-northeast,3.8,Yes
2017/09/08,02:10,0.350,0.225,0.351,0.330,0.323,0.183,0.117,north,3.7,Yes
2017/09/08,02:20,0.354,0.226,0.352,0.328,0.323,0.182,0.117,north,4.3,Yes
2017/09/08,02:30,0.352,0.225,0.351,0.328,0.322,0.183,0.116,north,5.3,Yes
2017/09/08,02:40,0.350,0.224,0.353,0.330,0.320,0.181,0.115,north,5.5,Yes
2017/09/08,02:50,0.353,0.225,0.349,0.326,0.323,0.179,0.113,north,4.5,Yes
2017/09/08,03:00,0.348,0.222,0.352,0.329,0.321,0.179,0.113,north,5.2,Yes
2017/09/08,03:10,0.353,0.226,0.348,0.326,0.322,0.179,0.114,north,3.9,Yes
2017/09/08,03:20,0.350,0.223,0.352,0.328,0.323,0.180,0.113,north,3.9,Yes
2017/09/08,03:30,0.352,0.224,0.350,0.326,0.320,0.179,0.114,north,5.1,Yes
2017/09/08,03:40,0.351,0.223,0.350,0.326,0.323,0.180,0.113,north,6.0,Yes
2017/09/08,03:50,0.349,0.222,0.349,0.328,0.319,0.178,0.113,north,6.1,Yes
2017/09/08,04:00,0.350,0.219,0.345,0.323,0.322,0.177,0.111,north,5.6,Yes
2017/09/08,04:10,0.346,0.218,0.348,0.324,0.317,0.175,0.110,north,5.9,Yes
2017/09/08,04:20,0.348,0.218,0.344,0.321,0.317,0.174,0.110,north,7.1,Yes
2017/09/08,04:30,0.346,0.215,0.346,0.322,0.317,0.175,0.110,north,6.4,Yes
2017/09/08,04:40,0.344,0.216,0.343,0.322,0.313,0.173,0.108,north,5.7,No
2017/09/08,04:50,0.345,0.213,0.343,0.320,0.316,0.172,0.107,north,6.4,Yes
2017/09/08,05:00,0.341,0.212,0.341,0.322,0.313,0.171,0.106,north,6.4,No
2017/09/08,05:10,0.343,0.210,0.341,0.318,0.315,0.169,0.104,north,5.6,Yes
2017/09/08,05:20,0.340,0.212,0.343,0.320,0.313,0.170,0.105,north,6.0,No
2017/09/08,05:30,0.344,0.210,0.340,0.316,0.312,0.169,0.104,north,5.8,No
2017/09/08,05:40,0.341,0.211,0.341,0.319,0.314,0.167,0.104,north,6.7,No
2017/09/08,05:50,0.340,0.209,0.339,0.317,0.310,0.168,0.104,north,6.4,No
2017/09/08,06:00,0.341,0.209,0.340,0.314,0.313,0.167,0.102,north,5.8,No
2017/09/08,06:10,0.337,0.208,0.338,0.318,0.311,0.168,0.103,north,6.6,No
2017/09/08,06:20,0.342,0.209,0.337,0.314,0.310,0.167,0.102,north,7.2,No
2017/09/08,06:30,0.337,0.208,0.342,0.316,0.311,0.166,0.102,north,5.8,No
2017/09/08,06:40,0.340,0.207,0.337,0.316,0.310,0.167,0.102,north,6.4,No
2017/09/08,06:50,0.338,0.208,0.340,0.313,0.312,0.165,0.102,north,7.3,No
2017/09/08,07:00,0.337,0.206,0.338,0.318,0.309,0.166,0.102,north,5.9,No
2017/09/08,07:10,0.341,0.208,0.339,0.315,0.313,0.166,0.102,north,5.5,No
2017/09/08,07:20,0.337,0.207,0.339,0.316,0.309,0.165,0.102,north,5.2,Yes
2017/09/08,07:30,0.341,0.208,0.338,0.315,0.311,0.168,0.102,north,5.8,No
2017/09/08,07:40,0.339,0.208,0.341,0.315,0.311,0.166,0.103,north,4.8,No
2017/09/08,07:50,0.341,0.208,0.336,0.316,0.309,0.167,0.102,north,6.1,No
2017/09/08,08:00,0.341,0.209,0.341,0.315,0.311,0.167,0.103,north,5.2,Yes
2017/09/08,08:10,0.340,0.209,0.340,0.318,0.310,0.167,0.103,north,5.1,No
2017/09/08,08:20,0.343,0.208,0.341,0.317,0.312,0.168,0.102,north,4.8,No
2017/09/08,08:30,0.338,0.208,0.341,0.317,0.311,0.166,0.103,north,4.8,No
2017/09/08,08:40,0.342,0.210,0.337,0.318,0.309,0.168,0.101,north-northwest,4.8,No
2017/09/08,08:50,0.340,0.208,0.342,0.314,0.312,0.167,0.101,north,2.2,No
2017/09/08,09:00,0.336,0.207,0.338,0.317,0.310,0.167,0.100,north,6.0,No
2017/09/08,09:10,0.340,0.208,0.338,0.318,0.309,0.166,0.101,north,4.1,No
2017/09/08,09:20,0.340,0.208,0.339,0.315,0.311,0.166,0.100,north,3.3,No
2017/09/08,09:30,0.336,0.207,0.338,0.313,0.312,0.167,0.099,north-northeast,3.6,No
2017/09/08,09:40,0.341,0.205,0.337,0.317,0.310,0.166,0.100,north-northeast,4.7,No
2017/09/08,09:50,0.342,0.208,0.342,0.318,0.306,0.165,0.102,north-northeast,5.5,No
2017/09/08,10:00,0.338,0.207,0.340,0.315,0.306,0.167,0.101,north-northeast,4.2,No
2017/09/08,10:10,0.338,0.206,0.337,0.315,0.312,0.167,0.102,north-northeast,3.6,No
2017/09/08,10:20,0.335,0.207,0.340,0.313,0.313,0.167,0.100,north-northeast,4.7,No
2017/09/08,10:30,0.343,0.206,0.341,0.315,0.310,0.166,0.098,northeast,5.3,No
2017/09/08,10:40,0.341,0.206,0.338,0.313,0.309,0.166,0.099,northeast,5.5,No
2017/09/08,10:50,0.338,0.209,0.338,0.319,0.309,0.166,0.100,north-northeast,5.8,Yes
2017/09/08,11:00,0.341,0.209,0.343,0.320,0.312,0.167,0.100,north-northeast,5.8,Yes
2017/09/08,11:10,0.344,0.208,0.341,0.318,0.314,0.168,0.100,north,5.9,Yes
2017/09/08,11:20,0.342,0.209,0.340,0.321,0.311,0.169,0.098,north,4.2,No
2017/09/08,11:30,0.341,0.209,0.345,0.320,0.314,0.167,0.100,north,4.2,No
2017/09/08,11:40,0.344,0.209,0.339,0.318,0.314,0.169,0.101,north,4.5,No
2017/09/08,11:50,0.344,0.208,0.338,0.316,0.313,0.169,0.100,north-northeast,4.8,No
2017/09/08,12:00,0.340,0.208,0.340,0.320,0.309,0.168,0.101,north,5.0,No
2017/09/08,12:10,0.340,0.209,0.344,0.319,0.310,0.167,0.101,north,4.5,No
2017/09/08,12:20,0.340,0.210,0.341,0.319,0.308,0.167,0.101,north,4.6,No
2017/09/08,12:30,0.344,0.209,0.340,0.317,0.309,0.168,0.101,north,4.2,No
2017/09/08,12:40,0.344,0.208,0.337,0.315,0.315,0.167,0.101,north-northeast,4.7,No
2017/09/08,12:50,0.340,0.208,0.337,0.316,0.314,0.168,0.101,north-northeast,4.7,No
2017/09/08,13:00,0.340,0.208,0.341,0.319,0.312,0.167,0.101,north-northeast,3.5,No
2017/09/08,13:10,0.346,0.210,0.344,0.321,0.312,0.167,0.102,northeast,2.3,No
2017/09/08,13:20,0.344,0.210,0.343,0.319,0.311,0.168,0.102,northeast,2.9,No
2017/09/08,13:30,0.341,0.210,0.341,0.320,0.311,0.168,0.101,northeast,2.7,No
2017/09/08,13:40,0.339,0.208,0.340,0.320,0.310,0.168,0.101,northeast,2.4,No
2017/09/08,13:50,0.339,0.209,0.341,0.319,0.310,0.168,0.101,northeast,3.1,No
2017/09/08,14:00,0.338,0.209,0.341,0.319,0.311,0.169,0.100,northeast,2.7,No
2017/09/08,14:10,0.339,0.209,0.342,0.318,0.312,0.169,0.100,northeast,2.4,No
2017/09/08,14:20,0.339,0.209,0.340,0.317,0.312,0.168,0.101,east-northeast,3.0,No
2017/09/08,14:30,0.342,0.209,0.342,0.318,0.312,0.168,0.100,east,2.5,No
2017/09/08,14:40,0.345,0.209,0.341,0.319,0.311,0.169,0.100,east-northeast,2.5,No
2017/09/08,14:50,0.344,0.207,0.340,0.318,0.312,0.169,0.099,east-northeast,1.9,No
2017/09/08,15:00,0.342,0.209,0.340,0.318,0.311,0.168,0.100,east-northeast,2.0,No
2017/09/08,15:10,0.343,0.208,0.338,0.317,0.311,0.168,0.102,east-northeast,1.4,No
2017/09/08,15:20,0.346,0.207,0.339,0.322,0.312,0.169,0.102,east-northeast,2.6,No
2017/09/08,15:30,0.343,0.210,0.343,0.322,0.312,0.169,0.101,east,1.9,No
2017/09/08,15:40,0.340,0.210,0.346,0.319,0.312,0.169,0.103,east,1.8,No
2017/09/08,15:50,0.346,0.210,0.342,0.321,0.312,0.168,0.102,east-southeast,1.9,No
2017/09/08,16:00,0.345,0.210,0.342,0.323,0.312,0.168,0.101,east-southeast,1.5,No
2017/09/08,16:10,0.343,0.211,0.344,0.320,0.312,0.169,0.101,south-southeast,1.2,No
2017/09/08,16:20,0.343,0.210,0.344,0.321,0.312,0.168,0.103,southeast,1.3,No
2017/09/08,16:30,0.347,0.209,0.341,0.323,0.310,0.169,0.101,south,2.2,No
2017/09/08,16:40,0.343,0.212,0.344,0.321,0.311,0.171,0.102,south,1.5,No
2017/09/08,16:50,0.342,0.210,0.343,0.321,0.312,0.170,0.102,south,2.0,No
2017/09/08,17:00,0.347,0.208,0.342,0.324,0.309,0.169,0.102,south,1.7,No
2017/09/08,17:10,0.343,0.210,0.346,0.320,0.310,0.170,0.102,south-southeast,1.3,No
2017/09/08,17:20,0.343,0.210,0.345,0.322,0.311,0.169,0.102,south,1.0,No
2017/09/08,17:30,0.345,0.210,0.342,0.323,0.316,0.168,0.102,south-southeast,1.8,No
2017/09/08,17:40,0.342,0.210,0.345,0.319,0.316,0.170,0.102,south,1.6,No
2017/09/08,17:50,0.345,0.210,0.342,0.323,0.312,0.169,0.103,south-southwest,1.4,No
2017/09/08,18:00,0.344,0.210,0.344,0.322,0.318,0.169,0.103,south,2.9,No
2017/09/08,18:10,0.343,0.209,0.345,0.320,0.314,0.169,0.102,south-southwest,1.1,No
2017/09/08,18:20,0.345,0.211,0.341,0.323,0.314,0.168,0.103,-,CALM,No
2017/09/08,18:30,0.342,0.209,0.345,0.320,0.317,0.170,0.103,south,0.8,No
2017/09/08,18:40,0.346,0.210,0.342,0.323,0.312,0.168,0.102,south,0.6,No
2017/09/08,18:50,0.344,0.210,0.344,0.321,0.316,0.170,0.103,-,CALM,No
2017/09/08,19:00,0.343,0.211,0.344,0.321,0.314,0.169,0.103,south-southeast,0.8,No
2017/09/08,19:10,0.344,0.210,0.342,0.323,0.314,0.168,0.103,south,1.2,No
2017/09/08,19:20,0.343,0.211,0.347,0.322,0.315,0.169,0.103,-,CALM,No
2017/09/08,19:30,0.346,0.211,0.343,0.323,0.312,0.170,0.103,south-southeast,0.7,No
2017/09/08,19:40,0.343,0.211,0.345,0.320,0.316,0.170,0.103,-,CALM,No
2017/09/08,19:50,0.346,0.210,0.343,0.324,0.312,0.168,0.103,south-southeast,0.6,No
2017/09/08,20:00,0.344,0.210,0.346,0.320,0.314,0.169,0.104,south,1.3,No
2017/09/08,20:10,0.344,0.210,0.344,0.323,0.314,0.170,0.102,south-southeast,0.6,No
2017/09/08,20:20,0.345,0.210,0.343,0.321,0.313,0.168,0.103,-,CALM,No
2017/09/08,20:30,0.344,0.212,0.345,0.323,0.314,0.170,0.103,-,CALM,No
2017/09/08,20:40,0.346,0.211,0.343,0.322,0.313,0.169,0.103,-,CALM,No
2017/09/08,20:50,0.343,0.211,0.345,0.323,0.316,0.169,0.103,-,CALM,No
2017/09/08,21:00,0.345,0.210,0.343,0.322,0.312,0.169,0.103,south,0.5,No
2017/09/08,21:10,0.343,0.210,0.345,0.322,0.314,0.171,0.103,-,CALM,No
2017/09/08,21:20,0.346,0.211,0.343,0.322,0.311,0.169,0.104,south-southwest,0.8,No
2017/09/08,21:30,0.345,0.210,0.346,0.322,0.315,0.170,0.103,south-southwest,1.4,No
2017/09/08,21:40,0.345,0.210,0.343,0.323,0.313,0.169,0.103,south-southwest,1.1,No
2017/09/08,21:50,0.346,0.210,0.347,0.322,0.314,0.170,0.102,south,1.0,No
2017/09/08,22:00,0.346,0.211,0.344,0.324,0.314,0.170,0.103,-,CALM,No
2017/09/08,22:10,0.346,0.210,0.345,0.320,0.314,0.170,0.103,-,CALM,No
2017/09/08,22:20,0.344,0.211,0.342,0.323,0.313,0.170,0.102,west-northwest,0.7,No
2017/09/08,22:30,0.346,0.209,0.346,0.321,0.314,0.170,0.103,north-northwest,0.9,No
2017/09/08,22:40,0.342,0.211,0.343,0.323,0.314,0.169,0.103,north-northwest,2.2,No
2017/09/08,22:50,0.346,0.211,0.345,0.320,0.313,0.170,0.103,north,1.1,No
2017/09/08,23:00,0.343,0.211,0.343,0.323,0.313,0.169,0.104,-,CALM,No
2017/09/08,23:10,0.345,0.210,0.346,0.320,0.314,0.170,0.103,west-northwest,0.6,No
2017/09/08,23:20,0.344,0.210,0.345,0.324,0.315,0.170,0.103,northwest,0.7,No
2017/09/08,23:30,0.346,0.210,0.345,0.321,0.314,0.170,0.103,north,2.0,No
2017/09/08,23:40,0.344,0.210,0.344,0.324,0.315,0.169,0.103,-,CALM,No
2017/09/08,23:50,0.348,0.210,0.345,0.321,0.313,0.171,0.103,north-northwest,1.6,No
